Inquirer Daily News

Weather

Get conditions and forecasts for any City, State, ZIP code or Country:  
Northeast Philadelphia, PA
on Tuesday, January 29, 2013

Tuesday
Previous Day Next Day
Daily Summary
 ActualAverage (KTTN)Record (KTTN)
Temperature
Mean Temperature °F 32°F  
Max Temperature 50°F 39°F 70°F (2002)
Min Temperature 33°F 24°F 0°F (1873)
Degree Days
Heating Degree Days 24 33  
Month to date heating degree days 984  
Since 1 July heating degree days 2879  
Cooling Degree Days 0 0  
Month to date cooling degree days 0  
Year to date cooling degree days 0  
Moisture
Dew Point 39°F   
Average Humidity 90    
Maximum Humidity 100    
Minimum Humidity 77    
Precipitation
Precipitation 0.00 in 0.09 in 1.00 in (1990)
Month to date precipitation 2.97  
Year to date precipitation 2.97  
Wind
Wind Speed 2 mph   
Max Wind Speed 7 mph   
Max Gust Speed mph   
Visibility 3 miles   
Events     

Key: T is trace of precipitation, MM is missing value
Source: NWS Daily Summary
Time(EST)TemperatureDew PointHumidity Pressure Visibility Wind DirectionWind SpeedGust SpeedPrecipitationEvents Conditions
12:02 AM 35.6°F 33.8°F 93% 30.05 in 2.5 miles WSW 4.6 mph - N/A   Scattered Clouds
12:54 AM 36.0°F 34.0°F 93% 30.05 in 2.5 miles Calm Calm - N/A   Clear
1:30 AM 35.6°F 33.8°F 93% 30.04 in 1.8 miles Calm Calm - N/A   Mostly Cloudy
1:54 AM 33.1°F 32.0°F 96% 30.05 in 1.5 miles Calm Calm - N/A   Overcast
2:47 AM 35.6°F 35.6°F 100% 30.06 in 2.0 miles Calm Calm - N/A   Overcast
2:54 AM 36.0°F 35.1°F 97% 30.06 in 1.8 miles Calm Calm - N/A   Overcast
3:02 AM 35.6°F 35.6°F 100% 30.05 in 2.0 miles Calm Calm - N/A   Overcast
3:54 AM 37.0°F 36.0°F 96% 30.07 in 2.0 miles Calm Calm - N/A   Overcast
4:54 AM 37.9°F 36.0°F 93% 30.09 in 2.5 miles Calm Calm - 0.00 in   Overcast
5:08 AM 37.4°F 35.6°F 93% 30.08 in 1.8 miles Calm Calm - N/A   Overcast
5:23 AM 37.4°F 37.4°F 100% 30.09 in 2.0 miles Calm Calm - N/A   Overcast
5:54 AM 37.9°F 37.0°F 97% 30.10 in 2.0 miles Calm Calm - N/A   Overcast
6:38 AM 39.2°F 37.4°F 93% 30.10 in 3.0 miles WSW 3.5 mph - N/A   Overcast
6:54 AM 39.0°F 37.0°F 93% 30.11 in 3.0 miles Calm Calm - N/A   Overcast
7:29 AM 39.2°F 37.4°F 93% 30.12 in 2.0 miles Calm Calm - N/A   Overcast
7:54 AM 39.0°F 37.9°F 96% 30.12 in 1.8 miles Calm Calm - N/A   Overcast
8:06 AM 39.2°F 37.4°F 93% 30.12 in 2.0 miles Calm Calm - N/A   Overcast
8:20 AM 39.2°F 37.4°F 93% 30.14 in 1.8 miles Calm Calm - N/A   Overcast
8:28 AM 41.0°F 37.4°F 87% 30.14 in 2.0 miles East 3.5 mph - N/A   Overcast
8:54 AM 41.0°F 37.9°F 89% 30.14 in 2.0 miles East 3.5 mph - N/A   Overcast
9:54 AM 42.1°F 39.0°F 89% 30.17 in 2.5 miles SSW 3.5 mph - N/A   Overcast
10:54 AM 44.1°F 39.9°F 85% 30.17 in 2.5 miles SSW 4.6 mph - N/A   Overcast
11:15 AM 44.6°F 39.2°F 81% 30.15 in 3.0 miles SW 4.6 mph - N/A   Haze
11:23 AM 44.6°F 39.2°F 81% 30.15 in 3.0 miles South 3.5 mph - N/A   Haze
11:54 AM 46.9°F 41.0°F 80% 30.14 in 3.0 miles Calm Calm - N/A   Haze
12:54 PM 48.0°F 41.0°F 77% 30.13 in 3.0 miles Calm Calm - N/A   Haze
1:54 PM 48.0°F 42.1°F 80% 30.11 in 3.0 miles SE 3.5 mph - N/A   Haze
2:54 PM 48.9°F 42.1°F 77% 30.10 in 4.0 miles SE 4.6 mph - N/A   Haze
3:54 PM 50.0°F 44.1°F 80% 30.10 in 4.0 miles ESE 5.8 mph - N/A   Haze
4:54 PM 48.9°F 44.1°F 83% 30.09 in 5.0 miles ESE 4.6 mph - N/A   Haze
5:03 PM 48.2°F 44.6°F 87% 30.09 in 5.0 miles ESE 5.8 mph - N/A   Haze
5:54 PM 48.9°F 45.0°F 86% 30.10 in 7.0 miles East 3.5 mph - N/A   Mostly Cloudy
6:54 PM 46.9°F 44.1°F 90% 30.11 in 10.0 miles ESE 6.9 mph - N/A   Mostly Cloudy
7:54 PM 46.9°F 44.1°F 90% 30.12 in 10.0 miles ESE 6.9 mph - N/A   Overcast
8:12 PM 46.4°F 42.8°F 87% 30.11 in 8.0 miles ESE 6.9 mph - N/A   Overcast
8:54 PM 45.0°F 43.0°F 93% 30.10 in 6.0 miles ESE 5.8 mph - N/A   Overcast
9:13 PM 44.6°F 42.8°F 93% 30.11 in 6.0 miles ESE 5.8 mph - N/A   Overcast
9:54 PM 44.1°F 42.1°F 93% 30.10 in 4.0 miles ESE 4.6 mph - N/A   Scattered Clouds
10:28 PM 42.8°F 41.0°F 93% 30.08 in 3.0 miles East 3.5 mph - N/A   Mostly Cloudy
10:44 PM 42.8°F 41.0°F 93% 30.08 in 2.5 miles East 5.8 mph - N/A   Scattered Clouds
10:54 PM 41.0°F 39.9°F 96% 30.08 in 2.5 miles East 3.5 mph - N/A   Scattered Clouds
11:11 PM 42.8°F 41.0°F 93% 30.07 in 2.0 miles ESE 3.5 mph - N/A   Mostly Cloudy
11:24 PM 42.8°F 39.2°F 87% 30.07 in 1.5 miles East 3.5 mph - N/A   Mostly Cloudy
11:54 PM 41.0°F 39.9°F 96% 30.07 in 1.5 miles East 4.6 mph - N/A   Overcast
Astronomy
Sunrise:07:11 AM (EST) Moon Rise:08:09 PM (EST)
Sunset:05:15 PM (EST) Moon Set:08:06 AM (EST)
Moon Phase
Jan. 29 Feb. 03 Feb. 10 Feb. 17 Feb. 25

Copyright © 2014 The Weather Underground, Inc.